Hauptseite
METAR-TAF:

METAR-TAF

Flughäfen :

Capo Mele

Andora, Italien

Breite: 43-57N, Länge: 008-10E, Höhe: 220 m

Beobachtung

Neuester Wetterbericht von vor 24 Minuten, um 18:55 UTC
Wind 2 kt aus Ost/Südost
Temperatur 29°C
Luftfeuchtigkeit 45%
Luftdruck 1017 hPa
Sichtweite 10 km oder mehr
keine Wolken unter 1500 m und keine Kumulonimbus oder Gewitterwolken

METAR: LIMU 191855Z 12002KT CAVOK 29/16 Q1017 RMK SKC QUK 1 QUL 1 SE VIS MAR 20 KM VIS MIN 9999

Zeit: 21:19 (19:19 UTC)


TAF: fehlend

Wetterbeobachtungen und Prognosen von mehr als 4000 Flughäfen (METAR und TAF Bericht).

Die verfügbaren Stationen werden durch gelbe und rote Markierungen auf der Karte dargestellt.

Führen Sie die Maus auf sie, um den Namen der Station zu sehen.

Darauf klicken, um die Beobachtung von Wetterbeobachtungen und Prognosen zu sehen.

Um die Karte zu ändern : klicken Sie auf den grünen Tasten mit einem schwarzen Kreuz Zum Vergrößern, auf den grünen Button mit einem Gedankenstrich zu verkleinern, oder auf die grünen Pfeile für benachbarte Karten.


METAR-TAF: